Hourly Data Report for October 02, 2015

All times are specified in Local Standard Time (LST). Add 1 hour to adjust for Daylight Saving Time where and when it is observed.

HALL BEACH A
NUNAVUT

68°46'33.000" N
81°14'33.000" W
9.10 m
2402354
71293
YUX

Download Data

Hourly Data (October 2015)
Hourly Data Report for October 2, 2015
Temp Definition
°C
Dew Point Temp Definition
°C
Rel Hum Definition
%
Wind Dir Definition
10's deg

Wind Spd Definition
km/h
Visibility Definition
km
Stn Press Definition
kPa
Hmdx Definition


Wind Chill Definition


Weather Definition


TIME
00:00 Legend Double Dagger 1.4 -1.7 80 28 63 16.1 101.11     LegendNANA
01:00 Legend Double Dagger 1.7 -2.0 76 30 67 16.1 101.28     LegendNANA
02:00 Legend Double Dagger 1.5 -2.1 77 30 61 16.1 101.48     LegendNANA
03:00 Legend Double Dagger 1.5 -2.3 76 31 61 12.9 101.70     LegendNANA
04:00 Legend Double Dagger 1.4 -1.6 81 30 46 16.1 101.85     LegendNANA
05:00 Legend Double Dagger 1.2 -1.8 80 30 45 16.1 102.01     LegendNANA
06:00 Legend Double Dagger 0.5 -2.6 80 30 43 16.1 102.18     LegendNANA
07:00 Legend Double Dagger 0.0 -3.2 79 29 39 16.1 102.29   -7 LegendNANA
08:00 Legend Double Dagger 0.1 -2.9 80 29 26 16.1 102.38     LegendNANA
09:00 Legend Double Dagger 0.5 -2.6 80 29 46 16.1 102.36     LegendNANA
10:00 Legend Double Dagger 0.9 -2.2 80 29 39 16.1 102.47     LegendNANA
11:00 Legend Double Dagger 1.3 -2.2 77 29 30 16.1 102.50     LegendNANA
12:00 Legend Double Dagger 1.4 -1.8 79 28 41 16.1 102.51     LegendNANA
13:00 Legend Double Dagger 1.9 -1.7 77 28 34 16.1 102.53     LegendNANA
14:00 Legend Double Dagger 2.0 -1.7 77 29 45 16.1 102.57     LegendNANA
15:00 Legend Double Dagger 1.3 -1.8 80 29 39 16.1 102.63     LegendNANA
16:00 Legend Double Dagger 1.2 -2.0 79 30 30 16.1 102.66     LegendNANA
17:00 Legend Double Dagger 0.9 -1.9 81 29 30 16.1 102.66     LegendNANA
18:00 Legend Double Dagger 0.5 -1.7 85 27 18 16.1 102.71     LegendNANA
19:00 Legend Double Dagger 0.7 -1.7 84 28 24 16.1 102.70     LegendNANA
20:00 Legend Double Dagger 0.5 -1.6 86 29 24 16.1 102.67     LegendNANA
21:00 Legend Double Dagger 0.3 -1.5 88 28 13 16.1 102.74     LegendNANA
22:00 Legend Double Dagger 0.5 -1.4 87 28 18 16.1 102.73     LegendNANA
23:00 Legend Double Dagger 0.5 -1.1 89 27 13 16.1 102.75     LegendNANA

Notes on Data Quality.

Legend

  • E = Estimated
  • M = Missing
  • NA = Not Available
  • ‡ = Partner data that is not subject to review by the National Climate Archives
Date modified: